Last 30 Days

Squaw-Belmont 8000'

Daily Data | America/Los_Angeles
as of 2/18/20 8:19 AM PST
Date Daily Max Temp (°F) Max Temp Time Daily Min Temp (°F) Min Temp Time Daily Rain (In) Seasonal Rainfall (In) New Snow (in) SnowDepth (in) Wind Spd (mph) Daily Max Wind (mph) Max Wind Time Max Wind Dir (°) Max RH (%) Min RH (%) Wet Bulb (°F) WetB Hrs <28F (hrs) Bat Volt Min Day (V)
2/17/20 37.1 1349 21.0 2337 0.00 78.90 0.2 89.2 2.8 14.9 1441 N | 1 95 15 22.1 24.0 13.0
2/16/20 38.2 1506 27.3 2231 0.00 78.90 0.3 89.6 10.4 30.1 0605 SW | 224 95 50 28.9 9.8 12.9
2/15/20 37.1 1454 29.3 0729 0.00 78.90 0.3 89.9 12.6 26.3 2317 SW | 227 84 16 26.8 14.7 13.0
2/14/20 38.3 1141 27.2 0653 0.00 78.90 0.2 90.1 7.8 27.3 0340 SW | 235 75 34 26.4 16.2 13.0
2/13/20 41.8 1201 25.6 0007 0.00 78.90 0.3 124.6 7.5 25.5 1916 SW | 224 78 19 25.9 14.9 13.0
2/12/20 38.3 1220 25.8 2346 0.00 78.90 0.2 124.9 2.8 13.9 1429 NE | 52 66 32 25.3 20.0 13.0
2/11/20 37.4 1519 20.9 0654 0.00 78.90 0.3 125.4 4.0 15.9 0942 ENE | 76 49 35 25.9 21.4 13.0
2/10/20 32.3 1338 16.9 0004 0.00 78.90 0.8 91.7 7.6 20.2 1129 ENE | 64 69 34 20.1 24.0 13.0
2/9/20 22.3 1529 13.0 0541 0.00 78.90 0.8 92.1 15.2 36.3 1823 NNE | 16 95 56 15.3 24.0 13.2
2/8/20 37.0 1105 15.3 2346 0.00 78.90 0.9 92.7 14.0 31.9 1230 W | 261 88 37 25.3 18.8 13.0
2/7/20 45.9 1435 27.9 0606 0.00 78.90 0.9 93.2 4.7 22.2 2148 W | 278 59 19 27.6 14.6 13.0
2/6/20 42.2 1201 27.2 0041 0.00 78.90 0.8 93.8 2.7 20.1 1348 NNE | 16 100 35 29.2 5.7 13.0
2/5/20 37.3 1334 19.8 0001 0.00 78.90 0.9 94.4 9.2 29.0 0758 NNE | 31 100 39 28.0 10.4 13.0
2/4/20 20.7 2216 6.5 0708 0.00 78.90 0.8 94.8 7.1 26.2 0335 NNE | 19 67 38 10.4 24.0 13.2
2/3/20 12.8 1520 4.3 0804 0.02 78.90 0.8 95.2 10.8 29.0 1244 NE | 54 93 32 6.1 24.0 13.3
2/2/20 38.7 0001 8.8 2357 0.09 78.88 1.7 97.9 12.6 34.8 1056 SSW | 203 99 25 20.0 19.9 13.0
2/1/20 52.5 1125 38.3 2346 0.00 78.79 0.9 96.4 5.8 24.6 2359 SW | 228 28 5 29.8 6.7 12.9
1/31/20 50.1 1253 30.5 0005 0.00 78.79 0.8 97.3 2.9 13.1 1632 WSW | 241 97 7 32.5 4.5 12.9
1/30/20 38.4 1519 30.0 2010 0.00 78.79 0.9 98.4 4.1 18.3 0220 W | 278 100 81 33.1 0.0 13.0
1/29/20 36.4 2238 19.1 0614 0.00 78.79 0.8 99.9 3.9 19.7 0001 NNE | 26 100 39 24.0 19.7 13.0
1/28/20 30.2 1122 21.0 2327 0.02 78.79 0.9 100.9 13.8 32.7 1403 WSW | 257 97 40 23.7 22.2 13.0
1/27/20 31.4 1222 24.3 0341 0.01 78.77 0.9 100.6 10.4 24.3 1812 SE | 127 100 45 25.8 19.2 13.0
1/26/20 34.0 0039 23.1 2228 1.19 78.76 0.9 102.2 10.8 33.1 0154 S | 186 100 86 28.6 9.8 13.0
1/25/20 42.8 1157 29.2 0335 0.07 77.57 0.9 97.7 5.9 28.4 2335 S | 177 100 32 33.0 3.6 13.0
1/24/20 33.4 0013 28.9 0934 0.19 77.50 0.8 98.9 10.9 37.1 0231 SW | 236 100 31 29.2 4.8 13.0
1/23/20 40.6 1411 28.6 0001 0.06 77.31 0.8 100.0 4.3 22.6 2141 SE | 137 100 67 32.7 0.5 13.0
1/22/20 34.3 1417 26.6 0741 0.12 77.25 0.8 101.6 8.0 36.9 0058 SW | 228 100 87 29.1 8.8 13.0
1/21/20 28.7 2354 24.2 0723 0.35 77.13 3.1 103.1 14.3 38.8 1118 S | 179 100 92 25.9 23.2 13.0
1/20/20 38.7 1156 25.6 2225 0.00 76.78 0.8 98.2 9.8 29.2 0106 SSW | 210 92 35 26.7 18.9 13.0
1/19/20 46.0 1251 28.0 0540 0.00 76.78 0.7 99.7 3.8 23.9 2242 SSW | 202 50 27 27.0 12.4 13.0
Max 52.5 - 38.3 - 1.19 - 3.1 125.4 15.2 38.8 - - 100 92 33.1 24.0 13.3
Avg - - - - - - 0.8 99.1 8.0 - - - - - 25.5 - -
Min 12.8 - 4.3 - 0.00 - 0.2 89.2 2.7 13.1 - - 28 5 6.1 0.0 12.9